| time (UTC) | temp C | wind direction | speed KPH | gust KPH | rain 1hr cm | rain 24hr cm | rain mn cm | humidity % | barometer mb |
| 20260504234525 | 25 | 130 | 3.2 | 16.1 | 0.00 | 0.00 | 0.00 | 42 | 1010.6 |
| 20260504233031 | 25 | 137 | 6.4 | 12.9 | 0.00 | 0.00 | 0.00 | 42 | 1010.6 |
| 20260504231537 | 25 | 134 | 1.6 | 16.1 | 0.00 | 0.00 | 0.00 | 42 | 1010.6 |
| 20260504230021 | 26 | 108 | 4.8 | 17.7 | 0.00 | 0.00 | 0.00 | 41 | 1010.7 |
| 20260504224507 | 26 | 107 | 3.2 | 12.9 | 0.00 | 0.00 | 0.00 | 41 | 1010.7 |
| 20260504223003 | 26 | 129 | 9.7 | 20.9 | 0.00 | 0.00 | 0.00 | 41 | 1010.7 |
| 20260504221505 | 26 | 103 | 6.4 | 19.3 | 0.00 | 0.00 | 0.00 | 41 | 1010.8 |
| 20260504220029 | 26 | 143 | 8.0 | 29.0 | 0.00 | 0.00 | 0.00 | 40 | 1010.9 |
| 20260504214552 | 26 | 124 | 4.8 | 12.9 | 0.00 | 0.00 | 0.00 | 41 | 1011.0 |
| 20260504213041 | 26 | 142 | 8.0 | 16.1 | 0.00 | 0.00 | 0.00 | 40 | 1011.0 |
| 20260504211518 | 26 | 142 | 6.4 | 20.9 | 0.00 | 0.00 | 0.00 | 40 | 1011.2 |
| 20260504210043 | 26 | 139 | 8.0 | 16.1 | 0.00 | 0.00 | 0.00 | 41 | 1011.4 |
| 20260504204530 | 26 | 134 | 6.4 | 20.9 | 0.00 | 0.00 | 0.00 | 41 | 1011.6 |
| 20260504203025 | 26 | 128 | 11.3 | 20.9 | 0.00 | 0.00 | 0.00 | 40 | 1012.0 |
| 20260504201523 | 26 | 124 | 4.8 | 16.1 | 0.00 | 0.00 | 0.00 | 41 | 1012.1 |
| 20260504200037 | 26 | 68 | 6.4 | 20.9 | 0.00 | 0.00 | 0.00 | 42 | 1012.4 |
| 20260504194559 | 26 | 134 | 8.0 | 25.7 | 0.00 | 0.00 | 0.00 | 42 | 1012.6 |
| 20260504193049 | 25 | 97 | 6.4 | 16.1 | 0.00 | 0.00 | 0.00 | 43 | 1012.7 |
| 20260504191532 | 25 | 139 | 6.4 | 19.3 | 0.00 | 0.00 | 0.00 | 41 | 1012.8 |
| 20260504190018 | 25 | 110 | 6.4 | 24.1 | 0.00 | 0.00 | 0.00 | 43 | 1013.0 |
| 20260504184513 | 25 | 99 | 8.0 | 16.1 | 0.00 | 0.00 | 0.00 | 42 | 1013.2 |
| 20260504183059 | 25 | 128 | 8.0 | 22.5 | 0.00 | 0.00 | 0.00 | 44 | 1013.3 |
| 20260504181513 | 25 | 137 | 8.0 | 22.5 | 0.00 | 0.00 | 0.00 | 44 | 1013.4 |
| 20260504180021 | 25 | 134 | 4.8 | 14.5 | 0.00 | 0.00 | 0.00 | 42 | 1013.6 |
| 20260504174525 | 25 | 134 | 4.8 | 19.3 | 0.00 | 0.00 | 0.00 | 43 | 1013.6 |
| 20260504173031 | 25 | 138 | 6.4 | 20.9 | 0.00 | 0.00 | 0.00 | 44 | 1013.9 |
| 20260504171519 | 24 | 152 | 6.4 | 14.5 | 0.00 | 0.00 | 0.00 | 44 | 1014.1 |
| 20260504140111 | 18 | 133 | 1.6 | 8.0 | 0.00 | 0.00 | 0.00 | 8 | 1015.7 |
| 20260504081537 | 10 | 155 | 0.0 | 0.0 | 0.00 | 0.00 | 0.00 | 100 | 1015.2 |
| 20260504044600 | 11 | 155 | 0.0 | 0.0 | 0.00 | 0.00 | 0.00 | 100 | 1016.6 |
| 20260504043046 | 11 | 155 | 0.0 | 0.0 | 0.00 | 0.00 | 0.00 | 100 | 1016.8 |
| 20260504041520 | 12 | 154 | 0.0 | 0.0 | 0.00 | 0.00 | 0.00 | 100 | 1016.8 |
| 20260504040012 | 12 | 154 | 0.0 | 0.0 | 0.00 | 0.00 | 0.00 | 7 | 1016.8 |
| 20260504034605 | 12 | 154 | 0.0 | 0.0 | 0.00 | 0.00 | 0.00 | 6 | 1016.9 |
| 20260504033048 | 12 | 154 | 0.0 | 0.0 | 0.00 | 0.00 | 0.00 | 4 | 1016.9 |
| 20260504031506 | 13 | 154 | 0.0 | 0.0 | 0.00 | 0.00 | 0.00 | 11 | 1017.0 |
| 20260504030034 | 13 | 154 | 0.0 | 0.0 | 0.00 | 0.00 | 0.00 | 6 | 1017.0 |
| 20260504024550 | 13 | 154 | 0.0 | 0.0 | 0.00 | 0.00 | 0.00 | 7 | 1017.0 |
| 20260504023055 | 13 | 153 | 0.0 | 0.0 | 0.00 | 0.00 | 0.00 | 18 | 1016.8 |
| 20260504021548 | 14 | 153 | 0.0 | 0.0 | 0.00 | 0.00 | 0.00 | 27 | 1016.7 |
| 20260504020023 | 15 | 153 | 0.0 | 0.0 | 0.00 | 0.00 | 0.00 | 34 | 1016.7 |
| 20260504014523 | 15 | 153 | 0.0 | 0.0 | 0.00 | 0.00 | 0.00 | 39 | 1016.6 |
| 20260504013035 | 15 | 153 | 0.0 | 3.2 | 0.00 | 0.00 | 0.00 | 41 | 1016.5 |
| 20260504011538 | 16 | 153 | 0.0 | 1.6 | 0.00 | 0.00 | 0.00 | 47 | 1016.5 |
| 20260504010059 | 17 | 152 | 0.0 | 0.0 | 0.00 | 0.00 | 0.00 | 49 | 1016.3 |
| 20260504004516 | 18 | 151 | 0.0 | 1.6 | 0.00 | 0.00 | 0.00 | 49 | 1016.1 |
| 20260504003005 | 20 | 128 | 0.0 | 1.6 | 0.00 | 0.00 | 0.00 | 50 | 1016.1 |
| 20260504001606 | 21 | 130 | 0.0 | 0.0 | 0.00 | 0.00 | 0.00 | 47 | 1016.0 |
| 20260504000014 | 22 | 127 | 0.0 | 3.2 | 0.00 | 0.00 | 0.00 | 40 | 1016.2 |